• In Germany
  • List of Countries
  • For 7 days
  • Water Temperature
  • Satellite Maps
  • Weather Map
  • Weather Widgets
  • user-avatar
    Login

    Hourly Weather Megri

    Today, 11 December, Monday

    Time Temperature Precipitation Wind Pressure Humidity
    00:00 -4°C° 0 mm 2 mps 622 mmHg 54%
    01:00 -4°C° 0 mm 2 mps 622 mmHg 54%
    02:00 -4°C° 0 mm 2 mps 622 mmHg 54%
    03:00 -5°C° 0 mm 2 mps 622 mmHg 57%
    04:00 -5°C° 0 mm 2 mps 622 mmHg 58%
    05:00 -5°C° 0 mm 2 mps 622 mmHg 59%
    06:00 -5°C° 0 mm 2 mps 622 mmHg 60%
    07:00 -4°C° 0 mm 2 mps 622 mmHg 60%
    08:00 -3°C° 0 mm 2 mps 623 mmHg 60%
    09:00 -2°C° 0 mm 2 mps 623 mmHg 59%
    10:00 -1°C° 0 mm 3 mps 623 mmHg 57%
    11:00 0°C° 0 mm 3 mps 623 mmHg 54%
    12:00 +1°C° 0 mm 3 mps 623 mmHg 52%
    13:00 +1°C° 0 mm 3 mps 623 mmHg 54%
    14:00 0°C° 0 mm 3 mps 623 mmHg 55%
    15:00 +1°C° 0 mm 2 mps 623 mmHg 57%
    16:00 -1°C° 0 mm 2 mps 623 mmHg 57%
    17:00 -2°C° 0 mm 2 mps 624 mmHg 58%
    18:00 -4°C° 0 mm 2 mps 624 mmHg 59%
    19:00 -4°C° 0 mm 2 mps 624 mmHg 58%
    20:00 -2°C° 0 mm 1 mps 624 mmHg 57%
    21:00 -2°C° 0 mm 1 mps 625 mmHg 56%
    22:00 -2°C° 0 mm 1 mps 625 mmHg 56%
    23:00 -2°C° 0 mm 1 mps 625 mmHg 57%

    Tomorrow, 12 December, Tuesday

    Time Temperature Precipitation Wind Pressure Humidity
    00:00 -2°C° 0 mm 1 mps 625 mmHg 57%
    01:00 -2°C° 0 mm 1 mps 625 mmHg 56%
    02:00 -2°C° 0 mm 1 mps 625 mmHg 56%
    03:00 -2°C° 0 mm 1 mps 625 mmHg 56%
    04:00 -2°C° 0 mm 1 mps 625 mmHg 56%
    05:00 -2°C° 0 mm 1 mps 625 mmHg 55%
    06:00 -2°C° 0 mm 1 mps 625 mmHg 55%
    07:00 -1°C° 0 mm 1 mps 626 mmHg 54%
    08:00 0°C° 0 mm 1 mps 626 mmHg 53%
    09:00 +1°C° 0 mm 1 mps 627 mmHg 52%
    10:00 +2°C° 0 mm 1 mps 627 mmHg 50%
    11:00 +4°C° 0 mm 1 mps 627 mmHg 49%
    12:00 +5°C° 0 mm 1 mps 627 mmHg 47%
    13:00 +5°C° 0 mm 1 mps 626 mmHg 49%
    14:00 +5°C° 0 mm 1 mps 626 mmHg 50%
    15:00 +5°C° 0 mm 1 mps 626 mmHg 51%
    16:00 +3°C° 0 mm 1 mps 626 mmHg 53%
    17:00 +2°C° 0 mm 1 mps 625 mmHg 55%
    18:00 0°C° 0 mm 1 mps 625 mmHg 57%
    19:00 0°C° 0 mm 1 mps 625 mmHg 56%
    20:00 0°C° 0 mm 1 mps 625 mmHg 55%
    21:00 0°C° 0 mm 1 mps 625 mmHg 54%
    22:00 -1°C° 0 mm 0 mps 625 mmHg 54%
    23:00 -1°C° 0 mm 0 mps 625 mmHg 53%

    Day after tomorrow, 13 December, Wednesday

    Time Temperature Precipitation Wind Pressure Humidity
    00:00 -1°C° 0 mm 0 mps 625 mmHg 53%
    01:00 -1°C° 0 mm 0 mps 624 mmHg 53%
    02:00 -1°C° 0 mm 0 mps 624 mmHg 52%
    03:00 -2°C° 0 mm 0 mps 624 mmHg 52%
    04:00 -2°C° 0 mm 0 mps 624 mmHg 52%
    05:00 -2°C° 0 mm 0 mps 624 mmHg 52%
    06:00 -2°C° 0 mm 0 mps 624 mmHg 52%
    07:00 -1°C° 0 mm 0 mps 624 mmHg 51%
    08:00 +2°C° 0 mm 1 mps 625 mmHg 49%
    09:00 +3°C° 0 mm 1 mps 626 mmHg 47%
    10:00 +4°C° 0 mm 1 mps 625 mmHg 47%
    11:00 +5°C° 0 mm 1 mps 625 mmHg 46%
    12:00 +6°C° 0 mm 1 mps 625 mmHg 46%
    13:00 +6°C° 0 mm 1 mps 625 mmHg 46%
    14:00 +6°C° 0 mm 1 mps 624 mmHg 46%
    15:00 +6°C° 0 mm 1 mps 624 mmHg 47%
    16:00 +4°C° 0 mm 1 mps 624 mmHg 50%
    17:00 +3°C° 0 mm 1 mps 623 mmHg 54%
    18:00 +1°C° 0 mm 1 mps 623 mmHg 57%
    19:00 +1°C° 0 mm 1 mps 622 mmHg 58%
    20:00 0°C° 0 mm 1 mps 622 mmHg 58%
    21:00 0°C° 0 mm 1 mps 622 mmHg 58%
    22:00 0°C° 0 mm 1 mps 622 mmHg 59%
    23:00 0°C° 0 mm 1 mps 622 mmHg 59%

    14 December, Thursday

    Time Temperature Precipitation Wind Pressure Humidity
    00:00 0°C° 0 mm 1 mps 622 mmHg 59%
    01:00 0°C° 0 mm 1 mps 622 mmHg 60%
    02:00 -1°C° 0 mm 1 mps 622 mmHg 61%
    03:00 -1°C° 0 mm 1 mps 622 mmHg 62%
    04:00 -1°C° 0 mm 1 mps 622 mmHg 63%
    05:00 -1°C° 0 mm 1 mps 622 mmHg 64%
    06:00 -1°C° 0 mm 1 mps 621 mmHg 65%
    07:00 0°C° 0 mm 1 mps 622 mmHg 63%
    08:00 +1°C° 0 mm 1 mps 623 mmHg 61%
    09:00 +2°C° 0 mm 1 mps 623 mmHg 59%
    10:00 +3°C° 0 mm 1 mps 623 mmHg 57%
    11:00 +4°C° 0 mm 1 mps 623 mmHg 54%
    12:00 +5°C° 0 mm 1 mps 623 mmHg 51%
    13:00 +5°C° 0 mm 1 mps 623 mmHg 52%
    14:00 +5°C° 0 mm 1 mps 622 mmHg 52%
    15:00 +4°C° 0 mm 0 mps 622 mmHg 53%
    16:00 +2°C° 0 mm 0 mps 622 mmHg 57%
    17:00 +2°C° 0 mm 1 mps 621 mmHg 62%
    18:00 +1°C° 0 mm 1 mps 621 mmHg 67%
    19:00 0°C° 0 mm 1 mps 621 mmHg 68%
    20:00 0°C° 0 mm 1 mps 621 mmHg 68%
    21:00 0°C° 0 mm 1 mps 621 mmHg 69%
    22:00 -1°C° 0 mm 0 mps 621 mmHg 68%
    23:00 -1°C° 0 mm 0 mps 620 mmHg 67%

    15 December, Friday

    Time Temperature Precipitation Wind Pressure Humidity
    00:00 -2°C° 0 mm 0 mps 620 mmHg 67%
    01:00 -2°C° 0 mm 0 mps 620 mmHg 65%
    02:00 -2°C° 0 mm 0 mps 620 mmHg 64%
    03:00 -2°C° 0 mm 0 mps 620 mmHg 62%
    04:00 -2°C° 0 mm 0 mps 620 mmHg 61%
    05:00 -2°C° 0 mm 0 mps 620 mmHg 61%
    06:00 -2°C° 0 mm 0 mps 620 mmHg 60%
    07:00 -1°C° 0 mm 0 mps 621 mmHg 56%
    08:00 0°C° 0 mm 0 mps 621 mmHg 53%
    09:00 +1°C° 0 mm 0 mps 622 mmHg 49%
    10:00 +3°C° 0 mm 1 mps 622 mmHg 46%
    11:00 +4°C° 0 mm 1 mps 622 mmHg 44%
    12:00 +5°C° 0 mm 1 mps 622 mmHg 41%
    13:00 +5°C° 0 mm 1 mps 622 mmHg 42%
    14:00 +5°C° 0 mm 1 mps 622 mmHg 43%
    15:00 +5°C° 0 mm 1 mps 622 mmHg 44%
    16:00 +3°C° 0 mm 1 mps 621 mmHg 49%
    17:00 +2°C° 0 mm 1 mps 621 mmHg 53%
    18:00 0°C° 0 mm 1 mps 621 mmHg 57%
    19:00 0°C° 0 mm 1 mps 621 mmHg 59%
    20:00 0°C° 0 mm 1 mps 622 mmHg 61%
    21:00 0°C° 0 mm 1 mps 622 mmHg 63%
    22:00 -1°C° 0 mm 1 mps 622 mmHg 64%
    23:00 -1°C° 0 mm 1 mps 622 mmHg 65%

    16 December, Saturday

    Time Temperature Precipitation Wind Pressure Humidity
    00:00 -1°C° 0 mm 1 mps 622 mmHg 66%
    01:00 -1°C° 0 mm 1 mps 622 mmHg 66%
    02:00 -1°C° 0 mm 1 mps 622 mmHg 67%
    03:00 -1°C° 0 mm 1 mps 622 mmHg 67%
    04:00 -2°C° 0 mm 1 mps 622 mmHg 67%
    05:00 -2°C° 0 mm 1 mps 622 mmHg 68%
    06:00 -2°C° 0 mm 1 mps 622 mmHg 68%
    07:00 -1°C° 0 mm 1 mps 623 mmHg 65%
    08:00 0°C° 0 mm 1 mps 624 mmHg 62%
    09:00 +1°C° 0 mm 1 mps 624 mmHg 58%
    10:00 +2°C° 0 mm 1 mps 624 mmHg 53%
    11:00 +3°C° 0 mm 1 mps 624 mmHg 48%
    12:00 +3°C° 0 mm 0 mps 624 mmHg 42%
    13:00 +3°C° 0 mm 0 mps 624 mmHg 43%
    14:00 +3°C° 0 mm 0 mps 624 mmHg 43%
    15:00 +3°C° 0 mm 0 mps 624 mmHg 43%
    16:00 +2°C° 0 mm 0 mps 623 mmHg 47%
    17:00 0°C° 0 mm 0 mps 623 mmHg 50%
    18:00 -1°C° 0 mm 0 mps 623 mmHg 54%
    19:00 -1°C° 0 mm 0 mps 623 mmHg 55%
    20:00 -1°C° 0 mm 0 mps 623 mmHg 55%
    21:00 -1°C° 0 mm 0 mps 623 mmHg 55%
    22:00 -2°C° 0 mm 0 mps 623 mmHg 54%
    23:00 -2°C° 0 mm 0 mps 623 mmHg 53%
    Show more